Location: Milton Keynes
(52.0316°N, 0.7531°W)
Time: 01:04:09
(UTC+00:00)

Envisat - Pass Details

Date: 02 February 2019
Orbit: 764 x 766 km, 98.2° (Epoch: 19 February)

Event Time Altitude Azimuth Distance (km) Brightness Sun altitude
Rises 07:00:18 0° 20° (NNE) 3,246 6.3 -6.7°
Reaches altitude 10° 07:02:50 10° 30° (NNE) 2,314 5.6 -6.4°
Maximum altitude 07:07:28 34° 95° (E) 1,236 5.0 -5.7°
Drops below altitude 10° 07:12:04 10° 161° (SSE) 2,298 6.1 -5.0°
Sets 07:14:34 0° 170° (S) 3,219 6.7 -4.7°
